[[{"header":{"parameterUnit":"m.s-1","parameterCategory":1,"la1":30.2991,"la2":30.254,"lo1":-89.0895,"lo2":-89.0444,"dy":0.0017,"dx":0.0017,"nx":28,"ny":28,"refTime":"2025-04-19T09:00:00:Z","depth":0,"parameterNumber":2,"parameterNumberName":"U-component_of_WINDS"},"data":[0,0,0,0,0,0,0,0,0,0,0,0,0,0,0,0,0,0,0,0,0,0,0,0,0,0,0,0,0,0,0,0,0,0,0,0,0,0,0,0,0,0,0,0,0,0,0,0,0,0,0,0,0,0,0,0,0,0,-4.7108,-4.7108,0,-4.717,-4.717,-4.7171,-4.7085,-4.7082,-4.7079,-4.7076,-4.7141,-4.7145,-4.715,0,0,0,0,0,0,0,0,0,0,0,0,0,-4.6916,-4.692,-4.7107,-4.7108,-4.7109,-4.717,-4.717,-4.7171,-4.7086,-4.7082,-4.7078,-4.7075,-4.7139,-4.7145,-4.715,0,0,0,0,0,0,0,0,0,0,0,0,0,-4.6991,-4.6921,-4.7107,-4.7074,-4.7071,-4.7169,-4.717,-4.7172,-4.7087,-4.7082,-4.7077,-4.7073,-4.7138,-4.7144,-4.7151,-4.7286,0,0,-4.7172,-4.7175,0,0,0,0,0,0,0,0,-4.6987,-4.6998,-4.7078,-4.7076,-4.7074,-4.7115,-4.7127,-4.721,-4.7088,-4.7081,-4.7076,-4.7071,-4.7136,-4.7143,-4.7165,-4.7289,-4.7291,-4.7173,-4.7177,-4.718,-4.7182,0,0,0,0,0,0,0,-4.6982,-4.6995,-4.7132,-4.7079,-4.7077,-4.7056,-4.7061,-4.7142,-4.7134,-4.7081,-4.7075,-4.7083,-4.7134,-4.7158,-4.7166,-4.7292,-4.7173,-4.7179,-4.7183,-4.7186,-4.7529,-4.7534,0,0,0,0,0,0,-4.698,-4.6991,-4.713,-4.7134,-4.7018,-4.7063,-4.7069,-4.7106,-4.7132,-4.7132,-4.7087,-4.7079,-4.7149,-4.7158,-4.7167,-4.7325,-4.718,-4.7186,-4.719,-4.7524,-4.753,-4.7536,0,0,0,0,0,0,-4.6977,-4.6994,-4.7128,-4.7061,-4.7076,-4.7071,-4.7114,-4.711,-4.7134,-4.7137,-4.7135,-4.7113,-4.7145,-4.7158,-4.7257,-4.7327,-4.7189,-4.7196,-4.7519,-4.7526,-4.7533,-4.7644,0,0,0,0,0,0,-4.6971,-4.6993,-4.7043,-4.7063,-4.708,-4.7216,-4.7118,-4.7115,-4.7146,-4.7136,-4.7161,-4.7161,-4.7143,-4.7247,-4.7264,-4.7334,-4.7201,-4.7512,-4.7522,-4.7531,-4.7634,-4.7654,-4.7671,0,0,0,0,0,-4.6965,-4.7072,-4.7046,-4.7063,-4.7143,-4.722,-4.723,-4.7207,-4.7152,-4.7203,-4.7205,-4.716,-4.7317,-4.7258,-4.7276,-4.7349,-4.7508,-4.7519,-4.753,-4.7625,-4.765,-4.7671,0,0,0,0,0,0,-4.7061,-4.7074,-4.7045,-4.7162,-4.7191,-4.7205,-4.7268,-4.7234,-4.7278,-4.7267,-4.7237,-4.7243,-4.7349,-4.7359,-4.7293,-4.748,-4.7403,-4.7419,-4.7469,-4.7493,-4.7511,-4.7506,-4.7207,0,0,0,0,0,-4.7096,-4.7157,-4.7165,-4.7267,-4.7283,-4.7274,-4.7306,-4.7286,-4.7314,-4.7326,-4.7335,-4.7364,-4.742,-4.7457,-4.7509,-4.7636,-4.7639,-4.7695,-4.7714,-4.7729,-4.7742,-4.7809,-4.7834,-4.7573,-4.7573,-4.7573,0,0,-4.7168,-4.7183,-4.7223,-4.7287,-4.7306,-4.737,-4.7284,-4.7355,-4.7402,-4.7336,-4.743,-4.7438,-4.7469,-4.7582,-4.7633,-4.7594,-4.7816,-4.7744,-4.7756,-4.7761,-4.7824,-4.7848,-4.787,-4.7581,-4.7579,-4.7578,0,0,-4.7332,-4.735,-4.7437,-4.7458,-4.7489,-4.7482,-4.7504,-4.7524,-4.7527,-4.762,-4.7572,-4.7628,-4.7725,-4.7749,-4.7774,-4.7948,-4.7908,-4.7966,-4.8064,-4.813,-4.815,-4.8168,-4.8229,-4.8252,-4.798,-4.798,-4.798,0,-4.7418,-4.7512,-4.7486,-4.756,-4.7589,-4.7534,-4.7621,-4.7643,-4.769,-4.7712,-4.7668,-4.7788,-4.7805,-4.7923,-4.7966,-4.7988,-4.8011,-4.7962,-4.8149,-4.8167,-4.8184,-4.8242,-4.8265,-4.7987,-4.7986,-4.7985,-4.7985,0,-4.7615,-4.7681,-4.7748,-4.7793,-4.7831,-4.7911,-4.7898,-4.7939,-4.7916,-4.7915,-4.8011,-4.8029,-4.8083,-4.811,-4.8089,-4.8225,-4.82,-4.8154,-4.8075,-4.8216,-4.8269,-4.8292,-4.7996,-4.7994,-4.7992,-4.799,0,0,-4.784,-4.7871,-4.7895,-4.7915,-4.7946,-4.7996,-4.8075,-4.8128,-4.8163,-4.8198,-4.8263,-4.8347,-4.8304,-4.8332,-4.8314,-4.8372,-4.8508,-4.8318,-4.8318,-4.8351,-4.8658,-4.8691,-4.8717,-4.8482,-4.8487,-4.849,-4.8655,0,-4.8002,-4.8137,-4.8116,-4.8247,-4.8307,-4.8256,-4.8324,-4.8351,-4.8352,-4.8403,-4.8405,-4.8464,-4.8404,-4.8421,-4.8476,-4.8479,-4.8568,-4.8467,-4.8542,-4.8544,-4.8533,-4.8745,-4.8781,-4.8935,-4.8676,-4.8679,-4.8682,0,-4.8209,-4.8251,-4.8387,-4.8408,-4.8433,-4.8494,-4.8541,-4.8591,-4.8621,-4.8617,-4.865,-4.8621,-4.87,-4.8622,-4.873,-4.8662,-4.8692,-4.8698,-4.8704,-4.8708,-4.862,-4.8754,-4.8984,-4.9007,-4.8715,-4.8712,-4.871,0,-4.8357,-4.8447,-4.854,-4.8559,-4.8587,-4.8631,-4.8645,-4.867,-4.8703,-4.8745,-4.8766,-4.8816,-4.8844,-4.8884,-4.8869,-4.8814,-4.898,-4.8901,-4.8979,-4.898,-4.9014,-4.9012,-4.9251,-4.9037,-4.9037,-4.9037,-4.9036,0,-4.8539,-4.8624,-4.8607,-4.8664,-4.8758,-4.8734,-4.8828,-4.8836,-4.8859,-4.8916,-4.8876,-4.8931,-4.891,-4.8964,-4.8954,-4.9044,-4.9058,-4.9057,-4.9052,-4.9059,-4.9059,-4.9076,-4.9065,-4.9043,-4.9041,-4.904,-4.9039,0,-4.8719,-4.8711,-4.8809,-4.8827,-4.8834,-4.8902,-4.8918,-4.8972,-4.897,-4.9044,-4.906,-4.9058,-4.912,-4.911,-4.9179,-4.9171,-4.9284,-4.9268,-4.9274,-4.9269,-4.9347,-4.9339,-4.9604,-4.9637,-4.9404,-4.9406,-4.9408,0,-4.8834,-4.8898,-4.8924,-4.896,-4.8976,-4.9035,-4.9068,-4.9048,-4.9085,-4.9124,-4.9173,-4.9231,-4.9276,-4.9378,-4.9382,-4.9435,-4.9418,-4.9507,-4.9426,-4.943,-4.9417,-4.9413,-4.9419,-4.9523,-4.9525,-4.9528,-4.9529,0,-4.904,-4.9033,-4.9083,-4.9132,-4.9173,-4.9211,-4.9245,-4.9276,-4.926,-4.9303,-4.9366,-4.9401,-4.9471,-4.9529,-4.9578,-4.9592,-4.9559,-4.9556,-4.9576,-4.9582,-4.9582,-4.9582,-4.9316,-4.9549,-4.9547,-4.9545,-4.9544,-4.9544,-4.919,-4.9244,-4.9271,-4.9328,-4.9351,-4.9384,-4.9435,-4.944,-4.9492,-4.9547,-4.9533,-4.9603,-4.9632,-4.9694,-4.9714,-4.9769,-4.9736,-4.9766,-4.9774,-4.9781,-4.9789,-4.9576,-4.9779,-4.9778,-4.9777,-4.9777,-4.9777,0,-4.9392,-4.9407,-4.946,-4.9508,-4.9553,-4.9518,-4.9553,-4.9593,-4.9656,-4.9685,-4.9731,-4.9802,-4.9859,-4.9869,-4.9922,-4.9965,-4.995,-4.9979,-4.9975,-4.9979,-4.9817,-4.9793,-4.999,-4.999,-4.999,-4.999,-4.999,-4.999,-4.9502,-4.9592,-4.9589,-4.969,-4.9704,-4.9773,-4.9796,-4.9826,-4.9849,-4.9931,-4.9978,-4.9984,-5.0006,-5.0061,-5.0111,-5.0113,-5.0133,-5.0168,-5.0164,-5.0012,-4.999,-4.997,-4.9947,-5.0173,-5.0174,-5.0321,-5.0322,-5.0323]},{"header":{"parameterUnit":"m.s-1","parameterCategory":1,"la1":30.2991,"la2":30.254,"lo1":-89.0895,"lo2":-89.0444,"dy":0.0017,"dx":0.0017,"nx":28,"ny":28,"refTime":"2025-04-19T09:00:00:Z","depth":0,"parameterNumber":3,"parameterNumberName":"V-component_of_WINDS"},"data":[0,0,0,0,0,0,0,0,0,0,0,0,0,0,0,0,0,0,0,0,0,0,0,0,0,0,0,0,0,0,0,0,0,0,0,0,0,0,0,0,0,0,0,0,0,0,0,0,0,0,0,0,0,0,0,0,0,0,2.1263,2.1264,0,2.1328,2.1329,2.1329,2.136,2.136,2.136,2.136,2.1424,2.1426,2.1428,0,0,0,0,0,0,0,0,0,0,0,0,0,2.1165,2.1166,2.1263,2.1264,2.1265,2.1328,2.1329,2.133,2.136,2.136,2.136,2.136,2.1424,2.1426,2.1428,0,0,0,0,0,0,0,0,0,0,0,0,0,2.1216,2.1167,2.1263,2.1288,2.129,2.1328,2.1329,2.133,2.136,2.136,2.136,2.136,2.1423,2.1426,2.1428,2.1445,0,0,2.1436,2.1437,0,0,0,0,0,0,0,0,2.1213,2.122,2.1283,2.1286,2.1289,2.1336,2.1318,2.1369,2.136,2.1334,2.136,2.136,2.1395,2.14,2.1412,2.1448,2.1451,2.1436,2.1438,2.1439,2.144,0,0,0,0,0,0,0,2.121,2.1217,2.1289,2.1284,2.1288,2.1295,2.1302,2.1327,2.1364,2.1336,2.1338,2.1346,2.1396,2.1409,2.1414,2.1452,2.1436,2.1439,2.144,2.1441,2.1507,2.1507,0,0,0,0,0,0,2.1202,2.1214,2.1287,2.1291,2.125,2.1297,2.1305,2.1321,2.1363,2.137,2.1346,2.1347,2.1405,2.1411,2.1416,2.144,2.1439,2.1442,2.1443,2.1506,2.1507,2.1507,0,0,0,0,0,0,2.12,2.1208,2.1284,2.1253,2.1263,2.1299,2.1316,2.1322,2.1335,2.1371,2.1377,2.1352,2.1405,2.1412,2.1438,2.1442,2.1443,2.1445,2.1506,2.1507,2.1507,2.1487,0,0,0,0,0,0,2.1197,2.1207,2.1215,2.1253,2.1265,2.1305,2.1317,2.1324,2.134,2.1342,2.1379,2.1385,2.1406,2.1434,2.1441,2.1446,2.1447,2.1506,2.1506,2.1507,2.1487,2.1486,2.1485,0,0,0,0,0,2.1193,2.1206,2.1215,2.1223,2.1275,2.1306,2.1312,2.1337,2.134,2.1348,2.137,2.1384,2.1441,2.1436,2.1444,2.145,2.1506,2.1506,2.1507,2.1487,2.1486,2.1485,0,0,0,0,0,0,2.1166,2.1211,2.1222,2.1247,2.1272,2.1311,2.1321,2.1335,2.1359,2.136,2.1389,2.1397,2.142,2.1438,2.1432,2.1469,2.1475,2.1476,2.1457,2.1456,2.1456,2.1451,2.1449,0,0,0,0,0,2.1163,2.1185,2.1223,2.1241,2.1254,2.1285,2.1299,2.1316,2.1343,2.1354,2.1379,2.1404,2.1428,2.1443,2.1467,2.149,2.1498,2.1498,2.1497,2.1496,2.1497,2.1511,2.1511,2.1508,2.1508,2.1508,0,0,2.1157,2.1184,2.1196,2.1237,2.1258,2.128,2.1294,2.1316,2.1333,2.1357,2.1384,2.1403,2.1433,2.1457,2.1469,2.1473,2.15,2.1496,2.1495,2.1497,2.1512,2.1512,2.1512,2.1508,2.1508,2.1508,0,0,2.1157,2.118,2.1198,2.122,2.1253,2.1274,2.1278,2.1314,2.1328,2.1355,2.1374,2.1394,2.1434,2.1456,2.1471,2.148,2.1493,2.1487,2.1483,2.1496,2.1496,2.1497,2.15,2.1501,2.1488,2.1488,2.1488,0,2.1145,2.1179,2.1205,2.1227,2.1245,2.1269,2.1288,2.1307,2.1346,2.1357,2.1361,2.1412,2.1434,2.1464,2.1467,2.1479,2.1485,2.1483,2.1494,2.1495,2.1496,2.1499,2.1501,2.1487,2.1487,2.1488,2.1488,0,2.1163,2.1187,2.1197,2.1235,2.1254,2.1274,2.1303,2.1319,2.1334,2.1354,2.1381,2.1409,2.1439,2.1447,2.1462,2.148,2.1481,2.1489,2.1494,2.1495,2.1499,2.15,2.1486,2.1486,2.1487,2.1487,0,0,2.1148,2.1201,2.1204,2.1222,2.126,2.1279,2.13,2.133,2.1343,2.1369,2.1388,2.1422,2.143,2.1448,2.1465,2.1476,2.1482,2.1483,2.1484,2.1482,2.1504,2.1499,2.15,2.1491,2.1492,2.1492,2.1502,0,2.1154,2.1194,2.1218,2.1248,2.127,2.1294,2.1312,2.1337,2.1357,2.1379,2.14,2.1424,2.1432,2.1443,2.1456,2.1479,2.1487,2.1478,2.1509,2.151,2.1501,2.1502,2.1496,2.1504,2.1504,2.1504,2.1504,0,2.1166,2.1192,2.1225,2.1261,2.1272,2.1288,2.1318,2.1338,2.1367,2.1381,2.1402,2.1419,2.1442,2.1446,2.1478,2.1472,2.1486,2.1499,2.15,2.1504,2.1507,2.1506,2.1507,2.1508,2.1507,2.1507,2.1507,0,2.1152,2.1196,2.1221,2.1235,2.1278,2.129,2.1308,2.1337,2.1354,2.138,2.1392,2.1419,2.1435,2.1456,2.1481,2.1481,2.1511,2.1516,2.1523,2.1522,2.1528,2.1527,2.1531,2.1536,2.1536,2.1536,2.1536,0,2.1157,2.1176,2.1216,2.1231,2.1253,2.1281,2.1302,2.1322,2.1348,2.1368,2.1389,2.1407,2.1438,2.146,2.1479,2.1503,2.151,2.1522,2.1526,2.152,2.1519,2.153,2.153,2.1536,2.1536,2.1536,2.1536,0,2.1145,2.1173,2.1202,2.1241,2.1251,2.1265,2.1299,2.1314,2.1335,2.136,2.1367,2.14,2.1427,2.1453,2.1489,2.1502,2.1526,2.1532,2.1516,2.1519,2.1524,2.1524,2.1536,2.1539,2.1541,2.1541,2.1541,0,2.1147,2.1162,2.1203,2.1218,2.1236,2.126,2.1277,2.1305,2.1323,2.1358,2.1369,2.1398,2.1422,2.1464,2.149,2.1518,2.1525,2.1528,2.153,2.1523,2.1526,2.1525,2.1527,2.1527,2.1527,2.1527,2.1527,0,2.1146,2.1159,2.1184,2.1214,2.1234,2.1259,2.1284,2.1295,2.1328,2.1347,2.1375,2.1394,2.1431,2.1459,2.149,2.1508,2.1523,2.1526,2.1529,2.1523,2.1513,2.1519,2.1515,2.1526,2.1526,2.1526,2.1526,2.1526,2.1142,2.1157,2.1188,2.1215,2.1237,2.126,2.1278,2.1301,2.1325,2.1358,2.1373,2.1401,2.143,2.1474,2.1492,2.1514,2.1518,2.1522,2.1523,2.1524,2.1523,2.1509,2.152,2.152,2.152,2.152,2.152,0,2.1143,2.1164,2.1189,2.1224,2.1245,2.1258,2.1287,2.1304,2.1329,2.1355,2.1379,2.1411,2.1439,2.1468,2.1497,2.151,2.1517,2.1516,2.1516,2.152,2.1518,2.1512,2.151,2.151,2.151,2.151,2.151,2.151,2.1146,2.1172,2.1189,2.1226,2.1248,2.1276,2.1292,2.1313,2.1335,2.137,2.1393,2.1412,2.144,2.1472,2.1497,2.1505,2.1515,2.1512,2.1522,2.1519,2.152,2.1521,2.1516,2.1514,2.1514,2.1523,2.1523,2.1523]}]]